Year,Month,Day,Hour,Minute,Value (Times are PST for windgust in km/hr)
2011,07,27,00,02,1.60
2011,07,27,00,04,1.60
2011,07,27,00,05,3.20
2011,07,27,00,06,4.80
2011,07,27,00,07,1.60
2011,07,27,00,08,3.20
2011,07,27,00,09,3.20
2011,07,27,00,10,3.20
2011,07,27,00,11,3.20
2011,07,27,00,12,3.20
2011,07,27,00,13,3.20
2011,07,27,00,14,4.80
2011,07,27,00,15,1.60
2011,07,27,00,16,3.20
2011,07,27,00,17,4.80
2011,07,27,00,18,3.20
2011,07,27,00,19,6.40
2011,07,27,00,20,4.80
2011,07,27,00,21,4.80
2011,07,27,00,22,3.20
2011,07,27,00,23,4.80
2011,07,27,00,24,4.80
2011,07,27,00,25,6.40
2011,07,27,00,26,4.80
2011,07,27,00,27,6.40
2011,07,27,00,28,8.10
2011,07,27,00,29,6.40
2011,07,27,00,30,4.80
2011,07,27,00,31,4.80
2011,07,27,00,32,6.40
2011,07,27,00,33,3.20
2011,07,27,00,34,4.80
2011,07,27,00,35,4.80
2011,07,27,00,36,4.80
2011,07,27,00,37,4.80
2011,07,27,00,38,6.40
2011,07,27,00,39,4.80
2011,07,27,00,40,6.40
2011,07,27,00,41,6.40
2011,07,27,00,42,8.10
2011,07,27,00,43,6.40
2011,07,27,00,44,4.80
2011,07,27,00,45,4.80
2011,07,27,00,46,4.80
2011,07,27,00,47,6.40
2011,07,27,00,48,6.40
2011,07,27,00,49,3.20
2011,07,27,00,50,3.20
2011,07,27,00,51,4.80
2011,07,27,00,52,6.40
2011,07,27,00,53,4.80
2011,07,27,00,54,4.80
2011,07,27,00,55,6.40
2011,07,27,00,56,6.40
2011,07,27,00,57,4.80
2011,07,27,00,58,6.40
2011,07,27,00,59,4.80
2011,07,27,01,00,4.80
2011,07,27,01,01,4.80
2011,07,27,01,02,6.40
2011,07,27,01,03,4.80
2011,07,27,01,04,8.10
2011,07,27,01,05,6.40
2011,07,27,01,06,4.80
2011,07,27,01,07,6.40
2011,07,27,01,08,4.80
2011,07,27,01,09,4.80
2011,07,27,01,10,6.40
2011,07,27,01,11,3.20
2011,07,27,01,12,3.20
2011,07,27,01,13,4.80
2011,07,27,01,14,6.40
2011,07,27,01,15,6.40
2011,07,27,01,16,6.40
2011,07,27,01,17,4.80
2011,07,27,01,18,8.10
2011,07,27,01,19,8.10
2011,07,27,01,20,4.80
2011,07,27,01,21,6.40
2011,07,27,01,22,4.80
2011,07,27,01,23,4.80
2011,07,27,01,24,6.40
2011,07,27,01,25,6.40
2011,07,27,01,26,8.10
2011,07,27,01,27,6.40
2011,07,27,01,28,6.40
2011,07,27,01,29,4.80
2011,07,27,01,30,4.80
2011,07,27,01,31,6.40
2011,07,27,01,32,6.40
2011,07,27,01,33,8.10
2011,07,27,01,34,6.40
2011,07,27,01,35,4.80
2011,07,27,01,36,4.80
2011,07,27,01,37,6.40
2011,07,27,01,38,4.80
2011,07,27,01,39,4.80
2011,07,27,01,40,4.80
2011,07,27,01,41,4.80
2011,07,27,01,42,4.80
2011,07,27,01,43,4.80
2011,07,27,01,44,4.80
2011,07,27,01,45,4.80
2011,07,27,01,46,6.40
2011,07,27,01,47,4.80
2011,07,27,01,48,6.40
2011,07,27,01,49,4.80
2011,07,27,01,50,4.80
2011,07,27,01,51,4.80
2011,07,27,01,52,4.80
2011,07,27,01,53,4.80
2011,07,27,01,54,4.80
2011,07,27,01,55,4.80
2011,07,27,01,56,4.80
2011,07,27,01,57,3.20
2011,07,27,01,58,3.20
2011,07,27,01,59,4.80
2011,07,27,02,00,4.80
2011,07,27,02,01,4.80
2011,07,27,02,02,3.20
2011,07,27,02,03,3.20
2011,07,27,02,04,4.80
2011,07,27,02,05,4.80
2011,07,27,02,06,4.80
2011,07,27,02,07,3.20
2011,07,27,02,08,1.60
2011,07,27,02,09,4.80
2011,07,27,02,10,4.80
2011,07,27,02,11,4.80
2011,07,27,02,12,6.40
2011,07,27,02,13,4.80
2011,07,27,02,14,6.40
2011,07,27,02,15,4.80
2011,07,27,02,16,4.80
2011,07,27,02,17,6.40
2011,07,27,02,18,6.40
2011,07,27,02,19,4.80
2011,07,27,02,20,4.80
2011,07,27,02,21,4.80
2011,07,27,02,22,4.80
2011,07,27,02,23,4.80
2011,07,27,02,24,3.20
2011,07,27,02,25,3.20
2011,07,27,02,26,1.60
2011,07,27,02,27,6.40
2011,07,27,02,28,4.80
2011,07,27,02,29,4.80
2011,07,27,02,30,3.20
2011,07,27,02,31,3.20
2011,07,27,02,32,3.20
2011,07,27,02,33,1.60
2011,07,27,02,34,3.20
2011,07,27,02,35,6.40
2011,07,27,02,36,4.80
2011,07,27,02,37,4.80
2011,07,27,02,38,4.80
2011,07,27,02,39,3.20
2011,07,27,02,40,4.80
2011,07,27,02,41,4.80
2011,07,27,02,42,4.80
2011,07,27,02,43,3.20
2011,07,27,02,44,3.20
2011,07,27,02,45,4.80
2011,07,27,02,46,6.40
2011,07,27,02,47,6.40
2011,07,27,02,48,6.40
2011,07,27,02,49,6.40
2011,07,27,02,50,8.10
2011,07,27,02,51,6.40
2011,07,27,02,52,4.80
2011,07,27,02,53,4.80
2011,07,27,02,54,6.40
2011,07,27,02,55,4.80
2011,07,27,02,56,4.80
2011,07,27,02,57,4.80
2011,07,27,02,58,4.80
2011,07,27,02,59,4.80
2011,07,27,03,00,4.80
2011,07,27,03,01,6.40
2011,07,27,03,02,6.40
2011,07,27,03,03,8.10
2011,07,27,03,04,8.10
2011,07,27,03,05,4.80
2011,07,27,03,06,3.20
2011,07,27,03,07,6.40
2011,07,27,03,08,4.80
2011,07,27,03,09,8.10
2011,07,27,03,10,8.10
2011,07,27,03,11,8.10
2011,07,27,03,12,9.60
2011,07,27,03,13,8.10
2011,07,27,03,14,8.10
2011,07,27,03,15,9.60
2011,07,27,03,16,6.40
2011,07,27,03,17,9.60
2011,07,27,03,18,9.60
2011,07,27,03,19,8.10
2011,07,27,03,20,9.60
2011,07,27,03,21,9.60
2011,07,27,03,22,6.40
2011,07,27,03,23,3.20
2011,07,27,03,24,8.10
2011,07,27,03,25,6.40
2011,07,27,03,26,8.10
2011,07,27,03,27,4.80
2011,07,27,03,28,8.10
2011,07,27,03,29,8.10
2011,07,27,03,30,9.60
2011,07,27,03,31,8.10
2011,07,27,03,32,6.40
2011,07,27,03,33,6.40
2011,07,27,03,34,6.40
2011,07,27,03,35,4.80
2011,07,27,03,36,4.80
2011,07,27,03,37,6.40
2011,07,27,03,38,8.10
2011,07,27,03,39,6.40
2011,07,27,03,40,4.80
2011,07,27,03,41,4.80
2011,07,27,03,42,4.80
2011,07,27,03,43,3.20
2011,07,27,03,44,8.10
2011,07,27,03,45,6.40
2011,07,27,03,46,8.10
2011,07,27,03,47,8.10
2011,07,27,03,48,8.10
2011,07,27,03,49,6.40
2011,07,27,03,50,6.40
2011,07,27,03,51,6.40
2011,07,27,03,52,6.40
2011,07,27,03,53,9.60
2011,07,27,03,54,6.40
2011,07,27,03,55,6.40
2011,07,27,03,56,4.80
2011,07,27,03,57,4.80
2011,07,27,03,58,8.10
2011,07,27,03,59,9.60
2011,07,27,04,00,4.80
2011,07,27,04,01,4.80
2011,07,27,04,02,6.40
2011,07,27,04,03,9.60
2011,07,27,04,04,8.10
2011,07,27,04,05,8.10
2011,07,27,04,06,4.80
2011,07,27,04,07,4.80
2011,07,27,04,08,8.10
2011,07,27,04,09,6.40
2011,07,27,04,10,8.10
2011,07,27,04,11,8.10
2011,07,27,04,12,4.80
2011,07,27,04,13,4.80
2011,07,27,04,14,9.60
2011,07,27,04,15,6.40
2011,07,27,04,16,8.10
2011,07,27,04,17,6.40
2011,07,27,04,18,9.60
2011,07,27,04,19,9.60
2011,07,27,04,20,4.80
2011,07,27,04,21,4.80
2011,07,27,04,22,8.10
2011,07,27,04,23,4.80
2011,07,27,04,24,4.80
2011,07,27,04,25,6.40
2011,07,27,04,26,8.10
2011,07,27,04,27,6.40
2011,07,27,04,28,3.20
2011,07,27,04,29,4.80
2011,07,27,04,30,4.80
2011,07,27,04,31,4.80
2011,07,27,04,32,8.10
2011,07,27,04,33,4.80
2011,07,27,04,34,6.40
2011,07,27,04,35,3.20
2011,07,27,04,36,3.20
2011,07,27,04,37,4.80
2011,07,27,04,38,3.20
2011,07,27,04,39,4.80
2011,07,27,04,40,6.40
2011,07,27,04,41,6.40
2011,07,27,04,42,9.60
2011,07,27,04,43,6.40
2011,07,27,04,44,8.10
2011,07,27,04,45,4.80
2011,07,27,04,46,4.80
2011,07,27,04,47,8.10
2011,07,27,04,48,6.40
2011,07,27,04,49,8.10
2011,07,27,04,50,8.10
2011,07,27,04,51,8.10
2011,07,27,04,52,3.20
2011,07,27,04,53,4.80
2011,07,27,04,54,4.80
2011,07,27,04,55,8.10
2011,07,27,04,56,8.10
2011,07,27,04,57,8.10
2011,07,27,04,58,6.40
2011,07,27,04,59,6.40
2011,07,27,05,00,4.80
2011,07,27,05,01,6.40
2011,07,27,05,02,3.20
2011,07,27,05,03,8.10
2011,07,27,05,04,4.80
2011,07,27,05,05,4.80
2011,07,27,05,06,6.40
2011,07,27,05,07,4.80
2011,07,27,05,08,4.80
2011,07,27,05,09,6.40
2011,07,27,05,10,6.40
2011,07,27,05,11,4.80
2011,07,27,05,12,4.80
2011,07,27,05,13,3.20
2011,07,27,05,14,1.60
2011,07,27,05,15,3.20
2011,07,27,05,17,3.20
2011,07,27,05,33,1.60
2011,07,27,05,39,1.60
2011,07,27,05,53,1.60
2011,07,27,05,59,4.80
2011,07,27,06,00,1.60
2011,07,27,06,01,4.80
2011,07,27,06,02,1.60
2011,07,27,06,03,3.20
2011,07,27,06,07,3.20
2011,07,27,06,08,1.60
2011,07,27,06,10,3.20
2011,07,27,06,11,3.20
2011,07,27,06,12,3.20
2011,07,27,06,13,3.20
2011,07,27,06,14,1.60
2011,07,27,06,15,4.80
2011,07,27,06,16,3.20
2011,07,27,06,17,4.80
2011,07,27,06,18,8.10
2011,07,27,06,19,4.80
2011,07,27,06,20,1.60
2011,07,27,06,21,3.20
2011,07,27,06,26,1.60
2011,07,27,06,27,1.60
2011,07,27,06,28,3.20
2011,07,27,06,29,3.20
2011,07,27,06,30,1.60
2011,07,27,06,32,1.60
2011,07,27,07,12,1.60
2011,07,27,07,38,4.80
2011,07,27,07,39,1.60
2011,07,27,07,41,4.80
2011,07,27,07,42,1.60
2011,07,27,07,43,8.10
2011,07,27,07,44,4.80
2011,07,27,07,46,1.60
2011,07,27,07,47,1.60
2011,07,27,07,58,1.60
2011,07,27,07,59,1.60
2011,07,27,08,03,1.60
2011,07,27,08,04,1.60
2011,07,27,08,08,1.60
2011,07,27,08,20,3.20
2011,07,27,08,21,9.60
2011,07,27,08,22,6.40
2011,07,27,08,23,6.40
2011,07,27,08,24,6.40
2011,07,27,08,25,6.40
2011,07,27,08,26,3.20
2011,07,27,08,27,4.80
2011,07,27,08,28,8.10
2011,07,27,08,29,4.80
2011,07,27,08,30,3.20
2011,07,27,08,31,6.40
2011,07,27,08,32,3.20
2011,07,27,08,33,4.80
2011,07,27,08,34,4.80
2011,07,27,08,35,1.60
2011,07,27,08,36,1.60
2011,07,27,08,37,1.60
2011,07,27,08,38,1.60
2011,07,27,08,39,3.20
2011,07,27,08,40,4.80
2011,07,27,08,41,6.40
2011,07,27,08,42,4.80
2011,07,27,08,43,1.60
2011,07,27,08,44,1.60
2011,07,27,08,45,1.60
2011,07,27,08,46,3.20
2011,07,27,08,47,6.40
2011,07,27,08,48,4.80
2011,07,27,08,49,4.80
2011,07,27,08,50,3.20
2011,07,27,08,51,3.20
2011,07,27,08,55,1.60
2011,07,27,08,56,3.20
2011,07,27,08,58,6.40
2011,07,27,08,59,4.80
2011,07,27,09,02,1.60
2011,07,27,09,03,1.60
2011,07,27,09,04,1.60
2011,07,27,09,06,1.60
2011,07,27,09,07,1.60
2011,07,27,09,09,4.80
2011,07,27,09,10,4.80
2011,07,27,09,11,4.80
2011,07,27,09,12,4.80
2011,07,27,09,13,4.80
2011,07,27,09,14,8.10
2011,07,27,09,15,6.40
2011,07,27,09,16,6.40
2011,07,27,09,17,6.40
2011,07,27,09,18,6.40
2011,07,27,09,19,1.60
2011,07,27,09,20,3.20
2011,07,27,09,21,1.60
2011,07,27,09,22,1.60
2011,07,27,09,23,3.20
2011,07,27,09,24,4.80
2011,07,27,09,25,1.60
2011,07,27,09,29,3.20
2011,07,27,09,30,3.20
2011,07,27,09,31,1.60
2011,07,27,09,32,4.80
2011,07,27,09,33,3.20
2011,07,27,09,34,3.20
2011,07,27,09,35,4.80
2011,07,27,09,36,4.80
2011,07,27,09,38,3.20
2011,07,27,09,39,3.20
2011,07,27,09,41,1.60
2011,07,27,09,43,1.60
2011,07,27,09,44,1.60
2011,07,27,09,46,1.60
2011,07,27,09,47,1.60
2011,07,27,09,48,1.60
2011,07,27,09,50,3.20
2011,07,27,09,51,4.80
2011,07,27,09,52,4.80
2011,07,27,09,53,3.20
2011,07,27,09,54,1.60
2011,07,27,09,55,1.60
2011,07,27,09,56,3.20
2011,07,27,09,57,1.60
2011,07,27,09,58,3.20
2011,07,27,10,01,1.60
2011,07,27,10,02,1.60
2011,07,27,10,04,1.60
2011,07,27,10,08,1.60
2011,07,27,10,10,1.60
2011,07,27,10,11,1.60
2011,07,27,10,13,1.60
2011,07,27,10,15,3.20
2011,07,27,10,16,1.60
2011,07,27,10,17,1.60
2011,07,27,10,18,3.20
2011,07,27,10,19,1.60
2011,07,27,10,20,1.60
2011,07,27,10,21,1.60
2011,07,27,10,22,6.40
2011,07,27,10,23,3.20
2011,07,27,10,24,1.60
2011,07,27,10,25,1.60
2011,07,27,10,26,3.20
2011,07,27,10,27,4.80
2011,07,27,10,28,3.20
2011,07,27,10,29,4.80
2011,07,27,10,30,4.80
2011,07,27,10,31,4.80
2011,07,27,10,32,3.20
2011,07,27,10,33,3.20
2011,07,27,10,34,3.20
2011,07,27,10,36,1.60
2011,07,27,10,38,1.60
2011,07,27,10,39,1.60
2011,07,27,10,40,4.80
2011,07,27,10,41,3.20
2011,07,27,10,42,4.80
2011,07,27,10,43,3.20
2011,07,27,10,44,6.40
2011,07,27,10,45,6.40
2011,07,27,10,46,3.20
2011,07,27,10,47,4.80
2011,07,27,10,48,1.60
2011,07,27,10,51,1.60
2011,07,27,10,53,1.60
2011,07,27,10,54,1.60
2011,07,27,10,55,6.40
2011,07,27,10,56,4.80
2011,07,27,10,57,3.20
2011,07,27,10,58,3.20
2011,07,27,10,59,1.60
2011,07,27,11,00,4.80
2011,07,27,11,01,3.20
2011,07,27,11,02,4.80
2011,07,27,11,03,3.20
2011,07,27,11,04,3.20
2011,07,27,11,07,3.20
2011,07,27,11,08,3.20
2011,07,27,11,09,6.40
2011,07,27,11,10,1.60
2011,07,27,11,11,1.60
2011,07,27,11,12,4.80
2011,07,27,11,13,3.20
2011,07,27,11,16,1.60
2011,07,27,11,17,1.60
2011,07,27,11,18,3.20
2011,07,27,11,19,3.20
2011,07,27,11,20,3.20
2011,07,27,11,21,1.60
2011,07,27,11,22,3.20
2011,07,27,11,23,3.20
2011,07,27,11,24,1.60
2011,07,27,11,25,1.60
2011,07,27,11,26,1.60
2011,07,27,11,27,1.60
2011,07,27,11,28,1.60
2011,07,27,11,29,3.20
2011,07,27,11,30,1.60
2011,07,27,11,31,4.80
2011,07,27,11,32,1.60
2011,07,27,11,33,1.60
2011,07,27,11,34,8.10
2011,07,27,11,35,6.40
2011,07,27,11,36,6.40
2011,07,27,11,37,6.40
2011,07,27,11,38,6.40
2011,07,27,11,39,3.20
2011,07,27,11,40,3.20
2011,07,27,11,42,1.60
2011,07,27,11,45,4.80
2011,07,27,11,46,4.80
2011,07,27,11,47,3.20
2011,07,27,11,48,1.60
2011,07,27,11,49,8.10
2011,07,27,11,50,4.80
2011,07,27,11,52,3.20
2011,07,27,11,54,6.40
2011,07,27,11,55,4.80
2011,07,27,11,56,4.80
2011,07,27,11,57,4.80
2011,07,27,11,58,8.10
2011,07,27,11,59,4.80
2011,07,27,12,00,9.60
2011,07,27,12,01,6.40
2011,07,27,12,02,3.20
2011,07,27,12,03,4.80
2011,07,27,12,04,4.80
2011,07,27,12,05,4.80
2011,07,27,12,06,4.80
2011,07,27,12,07,6.40
2011,07,27,12,08,6.40
2011,07,27,12,09,3.20
2011,07,27,12,10,4.80
2011,07,27,12,11,11.30
2011,07,27,12,12,16.10
2011,07,27,12,13,8.10
2011,07,27,12,14,8.10
2011,07,27,12,15,6.40
2011,07,27,12,16,4.80
2011,07,27,12,17,6.40
2011,07,27,12,18,6.40
2011,07,27,12,19,4.80
2011,07,27,12,20,3.20
2011,07,27,12,21,1.60
2011,07,27,12,22,4.80
2011,07,27,12,23,6.40
2011,07,27,12,24,8.10
2011,07,27,12,25,11.30
2011,07,27,12,26,8.10
2011,07,27,12,27,8.10
2011,07,27,12,28,3.20
2011,07,27,12,29,4.80
2011,07,27,12,30,9.60
2011,07,27,12,31,11.30
2011,07,27,12,32,11.30
2011,07,27,12,33,8.10
2011,07,27,12,34,9.60
2011,07,27,12,35,3.20
2011,07,27,12,36,8.10
2011,07,27,12,37,6.40
2011,07,27,12,38,4.80
2011,07,27,12,39,6.40
2011,07,27,12,40,11.30
2011,07,27,12,41,11.30
2011,07,27,12,42,14.50
2011,07,27,12,43,8.10
2011,07,27,12,44,11.30
2011,07,27,12,45,8.10
2011,07,27,12,46,6.40
2011,07,27,12,47,4.80
2011,07,27,12,48,14.50
2011,07,27,12,49,9.60
2011,07,27,12,50,16.10
2011,07,27,12,51,14.50
2011,07,27,12,52,9.60
2011,07,27,12,53,22.50
2011,07,27,12,54,25.70
2011,07,27,12,55,29.00
2011,07,27,12,56,29.00
2011,07,27,12,57,11.30
2011,07,27,12,58,19.30
2011,07,27,12,59,20.90
2011,07,27,13,00,19.30
2011,07,27,13,01,16.10
2011,07,27,13,02,19.30
2011,07,27,13,03,25.70
2011,07,27,13,04,20.90
2011,07,27,13,05,19.30
2011,07,27,13,06,17.70
2011,07,27,13,07,9.60
2011,07,27,13,08,17.70
2011,07,27,13,09,11.30
2011,07,27,13,10,11.30
2011,07,27,13,11,6.40
2011,07,27,13,12,8.10
2011,07,27,13,13,11.30
2011,07,27,13,14,9.60
2011,07,27,13,15,6.40
2011,07,27,13,16,11.30
2011,07,27,13,17,6.40
2011,07,27,13,18,3.20
2011,07,27,13,19,20.90
2011,07,27,13,20,25.70
2011,07,27,13,21,29.00
2011,07,27,13,22,24.20
2011,07,27,13,23,30.60
2011,07,27,13,24,14.50
2011,07,27,13,25,17.70
2011,07,27,13,26,11.30
2011,07,27,13,27,17.70
2011,07,27,13,28,25.70
2011,07,27,13,29,22.50
2011,07,27,13,30,27.40
2011,07,27,13,31,24.20
2011,07,27,13,32,22.50
2011,07,27,13,33,14.50
2011,07,27,13,34,4.80
2011,07,27,13,35,27.40
2011,07,27,13,36,19.30
2011,07,27,13,37,9.60
2011,07,27,13,38,29.00
2011,07,27,13,39,25.70
2011,07,27,13,40,25.70
2011,07,27,13,41,14.50
2011,07,27,13,42,12.90
2011,07,27,13,43,16.10
2011,07,27,13,44,19.30
2011,07,27,13,45,25.70
2011,07,27,13,46,24.20
2011,07,27,13,47,22.50
2011,07,27,13,48,24.20
2011,07,27,13,49,17.70
2011,07,27,13,50,9.60
2011,07,27,13,51,6.40
2011,07,27,13,52,6.40
2011,07,27,13,53,6.40
2011,07,27,13,54,16.10
2011,07,27,13,55,20.90
2011,07,27,13,56,17.70
2011,07,27,13,57,17.70
2011,07,27,13,58,9.60
2011,07,27,13,59,14.50
2011,07,27,14,00,25.70
2011,07,27,14,01,24.20
2011,07,27,14,02,20.90
2011,07,27,14,03,11.30
2011,07,27,14,04,6.40
2011,07,27,14,05,8.10
2011,07,27,14,06,9.60
2011,07,27,14,07,11.30
2011,07,27,14,08,9.60
2011,07,27,14,09,8.10
2011,07,27,14,10,1.60
2011,07,27,14,11,4.80
2011,07,27,14,12,9.60
2011,07,27,14,13,6.40
2011,07,27,14,14,8.10
2011,07,27,14,15,11.30
2011,07,27,14,16,17.70
2011,07,27,14,17,19.30
2011,07,27,14,18,11.30
2011,07,27,14,19,9.60
2011,07,27,14,20,11.30
2011,07,27,14,21,12.90
2011,07,27,14,22,11.30
2011,07,27,14,23,8.10
2011,07,27,14,24,4.80
2011,07,27,14,25,4.80
2011,07,27,14,26,12.90
2011,07,27,14,27,22.50
2011,07,27,14,28,19.30
2011,07,27,14,29,16.10
2011,07,27,14,30,11.30
2011,07,27,14,31,8.10
2011,07,27,14,32,8.10
2011,07,27,14,33,6.40
2011,07,27,14,34,8.10
2011,07,27,14,35,12.90
2011,07,27,14,36,6.40
2011,07,27,14,37,4.80
2011,07,27,14,38,17.70
2011,07,27,14,39,20.90
2011,07,27,14,40,19.30
2011,07,27,14,41,19.30
2011,07,27,14,42,19.30
2011,07,27,14,43,14.50
2011,07,27,14,44,19.30
2011,07,27,14,45,17.70
2011,07,27,14,46,19.30
2011,07,27,14,47,16.10
2011,07,27,14,48,19.30
2011,07,27,14,49,14.50
2011,07,27,14,50,19.30
2011,07,27,14,51,8.10
2011,07,27,14,52,6.40
2011,07,27,14,53,19.30
2011,07,27,14,54,22.50
2011,07,27,14,55,14.50
2011,07,27,14,56,8.10
2011,07,27,14,57,12.90
2011,07,27,14,58,16.10
2011,07,27,14,59,8.10
2011,07,27,15,00,8.10
2011,07,27,15,01,19.30
2011,07,27,15,02,14.50
2011,07,27,15,03,16.10
2011,07,27,15,04,4.80
2011,07,27,15,05,6.40
2011,07,27,15,06,4.80
2011,07,27,15,07,8.10
2011,07,27,15,08,3.20
2011,07,27,15,09,3.20
2011,07,27,15,10,3.20
2011,07,27,15,11,4.80
2011,07,27,15,12,20.90
2011,07,27,15,13,22.50
2011,07,27,15,14,8.10
2011,07,27,15,15,8.10
2011,07,27,15,16,12.90
2011,07,27,15,17,6.40
2011,07,27,15,18,17.70
2011,07,27,15,19,11.30
2011,07,27,15,20,9.60
2011,07,27,15,21,17.70
2011,07,27,15,22,9.60
2011,07,27,15,23,8.10
2011,07,27,15,24,6.40
2011,07,27,15,25,6.40
2011,07,27,15,26,8.10
2011,07,27,15,27,3.20
2011,07,27,15,28,8.10
2011,07,27,15,29,11.30
2011,07,27,15,30,9.60
2011,07,27,15,31,8.10
2011,07,27,15,32,8.10
2011,07,27,15,33,9.60
2011,07,27,15,34,19.30
2011,07,27,15,35,14.50
2011,07,27,15,36,4.80
2011,07,27,15,37,4.80
2011,07,27,15,38,8.10
2011,07,27,15,39,17.70
2011,07,27,15,40,16.10
2011,07,27,15,41,6.40
2011,07,27,15,42,8.10
2011,07,27,15,43,16.10
2011,07,27,15,44,27.40
2011,07,27,15,45,19.30
2011,07,27,15,46,17.70
2011,07,27,15,47,12.90
2011,07,27,15,48,8.10
2011,07,27,15,49,6.40
2011,07,27,15,50,17.70
2011,07,27,15,51,8.10
2011,07,27,15,52,4.80
2011,07,27,15,53,16.10
2011,07,27,15,54,16.10
2011,07,27,15,55,25.70
2011,07,27,15,56,9.60
2011,07,27,15,57,20.90
2011,07,27,15,58,17.70
2011,07,27,15,59,8.10
2011,07,27,16,00,17.70
2011,07,27,16,01,17.70
2011,07,27,16,02,8.10
2011,07,27,16,03,11.30
2011,07,27,16,04,16.10
2011,07,27,16,05,9.60
2011,07,27,16,06,12.90
2011,07,27,16,07,3.20
2011,07,27,16,08,6.40
2011,07,27,16,09,17.70
2011,07,27,16,10,22.50
2011,07,27,16,11,16.10
2011,07,27,16,12,4.80
2011,07,27,16,13,4.80
2011,07,27,16,14,6.40
2011,07,27,16,15,4.80
2011,07,27,16,16,17.70
2011,07,27,16,17,12.90
2011,07,27,16,18,16.10
2011,07,27,16,19,17.70
2011,07,27,16,20,16.10
2011,07,27,16,21,8.10
2011,07,27,16,22,6.40
2011,07,27,16,23,9.60
2011,07,27,16,24,11.30
2011,07,27,16,25,19.30
2011,07,27,16,26,17.70
2011,07,27,16,27,12.90
2011,07,27,16,28,16.10
2011,07,27,16,29,12.90
2011,07,27,16,30,9.60
2011,07,27,16,31,3.20
2011,07,27,16,32,3.20
2011,07,27,16,33,8.10
2011,07,27,16,34,4.80
2011,07,27,16,35,6.40
2011,07,27,16,36,4.80
2011,07,27,16,37,4.80
2011,07,27,16,38,6.40
2011,07,27,16,39,14.50
2011,07,27,16,40,12.90
2011,07,27,16,41,14.50
2011,07,27,16,42,16.10
2011,07,27,16,43,20.90
2011,07,27,16,44,20.90
2011,07,27,16,45,12.90
2011,07,27,16,46,8.10
2011,07,27,16,47,9.60
2011,07,27,16,48,9.60
2011,07,27,16,49,4.80
2011,07,27,16,50,1.60
2011,07,27,16,52,9.60
2011,07,27,16,53,11.30
2011,07,27,16,54,4.80
2011,07,27,16,56,4.80
2011,07,27,16,57,17.70
2011,07,27,16,58,4.80
2011,07,27,16,59,8.10
2011,07,27,17,00,3.20
2011,07,27,17,01,4.80
2011,07,27,17,02,4.80
2011,07,27,17,03,6.40
2011,07,27,17,04,14.50
2011,07,27,17,05,24.20
2011,07,27,17,06,4.80
2011,07,27,17,07,20.90
2011,07,27,17,08,17.70
2011,07,27,17,09,19.30
2011,07,27,17,10,8.10
2011,07,27,17,11,6.40
2011,07,27,17,12,4.80
2011,07,27,17,13,8.10
2011,07,27,17,14,16.10
2011,07,27,17,15,11.30
2011,07,27,17,16,9.60
2011,07,27,17,17,9.60
2011,07,27,17,18,6.40
2011,07,27,17,19,17.70
2011,07,27,17,20,20.90
2011,07,27,17,21,14.50
2011,07,27,17,22,11.30
2011,07,27,17,23,16.10
2011,07,27,17,24,17.70
2011,07,27,17,25,12.90
2011,07,27,17,26,4.80
2011,07,27,17,27,17.70
2011,07,27,17,28,14.50
2011,07,27,17,29,17.70
2011,07,27,17,30,6.40
2011,07,27,17,31,6.40
2011,07,27,17,32,1.60
2011,07,27,17,33,3.20
2011,07,27,17,35,11.30
2011,07,27,17,36,9.60
2011,07,27,17,37,6.40
2011,07,27,17,38,4.80
2011,07,27,17,39,9.60
2011,07,27,17,40,8.10
2011,07,27,17,41,1.60
2011,07,27,17,42,3.20
2011,07,27,17,43,4.80
2011,07,27,17,44,6.40
2011,07,27,17,45,11.30
2011,07,27,17,46,9.60
2011,07,27,17,47,11.30
2011,07,27,17,48,6.40
2011,07,27,17,49,6.40
2011,07,27,17,50,9.60
2011,07,27,17,51,11.30
2011,07,27,17,52,8.10
2011,07,27,17,53,8.10
2011,07,27,17,54,6.40
2011,07,27,17,55,3.20
2011,07,27,17,56,11.30
2011,07,27,17,57,11.30
2011,07,27,17,58,6.40
2011,07,27,17,59,1.60
2011,07,27,18,00,1.60
2011,07,27,18,01,4.80
2011,07,27,18,02,4.80
2011,07,27,18,03,1.60
2011,07,27,18,04,1.60
2011,07,27,18,06,1.60
2011,07,27,18,07,6.40
2011,07,27,18,08,4.80
2011,07,27,18,09,8.10
2011,07,27,18,10,6.40
2011,07,27,18,11,1.60
2011,07,27,18,14,6.40
2011,07,27,18,15,1.60
2011,07,27,18,17,4.80
2011,07,27,18,18,3.20
2011,07,27,18,21,1.60
2011,07,27,18,22,4.80
2011,07,27,18,24,3.20
2011,07,27,18,25,1.60
2011,07,27,18,26,19.30
2011,07,27,18,27,6.40
2011,07,27,18,28,8.10
2011,07,27,18,29,9.60
2011,07,27,18,30,4.80
2011,07,27,18,31,11.30
2011,07,27,18,32,19.30
2011,07,27,18,33,16.10
2011,07,27,18,34,6.40
2011,07,27,18,35,9.60
2011,07,27,18,36,9.60
2011,07,27,18,37,9.60
2011,07,27,18,38,9.60
2011,07,27,18,39,11.30
2011,07,27,18,40,19.30
2011,07,27,18,41,9.60
2011,07,27,18,42,8.10
2011,07,27,18,43,8.10
2011,07,27,18,44,19.30
2011,07,27,18,45,14.50
2011,07,27,18,46,8.10
2011,07,27,18,47,9.60
2011,07,27,18,48,3.20
2011,07,27,18,49,3.20
2011,07,27,18,50,4.80
2011,07,27,18,51,9.60
2011,07,27,18,52,9.60
2011,07,27,18,53,8.10
2011,07,27,18,54,3.20
2011,07,27,18,55,1.60
2011,07,27,18,56,6.40
2011,07,27,18,57,6.40
2011,07,27,18,58,4.80
2011,07,27,18,59,3.20
2011,07,27,19,00,3.20
2011,07,27,19,01,9.60
2011,07,27,19,02,14.50
2011,07,27,19,03,4.80
2011,07,27,19,04,4.80
2011,07,27,19,05,4.80
2011,07,27,19,06,1.60
2011,07,27,19,07,1.60
2011,07,27,19,08,3.20
2011,07,27,19,09,1.60
2011,07,27,19,10,1.60
2011,07,27,19,11,1.60
2011,07,27,19,12,1.60
2011,07,27,19,15,1.60
2011,07,27,19,16,4.80
2011,07,27,19,20,1.60
2011,07,27,19,21,1.60
2011,07,27,19,23,4.80
2011,07,27,19,25,1.60
2011,07,27,19,26,3.20
2011,07,27,19,27,3.20
2011,07,27,19,28,3.20
2011,07,27,19,29,1.60
2011,07,27,19,31,1.60
2011,07,27,19,33,1.60
2011,07,27,19,35,1.60
2011,07,27,19,36,3.20
2011,07,27,19,37,3.20
2011,07,27,19,39,1.60
2011,07,27,19,58,1.60
2011,07,27,20,02,1.60
2011,07,27,20,09,1.60
2011,07,27,20,24,1.60
2011,07,27,20,25,1.60
2011,07,27,20,26,1.60
2011,07,27,20,28,1.60
2011,07,27,20,29,1.60
2011,07,27,21,30,3.20
2011,07,27,21,49,1.60
2011,07,27,22,21,1.60
2011,07,27,22,22,1.60
2011,07,27,22,38,1.60
2011,07,27,22,43,1.60
2011,07,27,22,44,1.60
2011,07,27,22,45,1.60
2011,07,27,22,47,3.20
2011,07,27,22,48,1.60
2011,07,27,22,55,4.80
2011,07,27,22,57,1.60
2011,07,27,22,58,1.60
2011,07,27,22,59,4.80
2011,07,27,23,00,4.80
2011,07,27,23,01,8.10
2011,07,27,23,02,9.60
2011,07,27,23,03,8.10
2011,07,27,23,04,8.10
2011,07,27,23,05,6.40
2011,07,27,23,06,6.40
2011,07,27,23,07,6.40
2011,07,27,23,08,6.40
2011,07,27,23,09,8.10
2011,07,27,23,10,4.80
2011,07,27,23,11,6.40
2011,07,27,23,12,6.40
2011,07,27,23,13,8.10
2011,07,27,23,14,4.80
2011,07,27,23,15,6.40
2011,07,27,23,16,4.80
2011,07,27,23,17,6.40
2011,07,27,23,18,8.10
2011,07,27,23,19,4.80
2011,07,27,23,20,8.10
2011,07,27,23,21,6.40
2011,07,27,23,22,8.10
2011,07,27,23,23,8.10
2011,07,27,23,24,4.80
2011,07,27,23,25,6.40
2011,07,27,23,26,4.80
2011,07,27,23,27,8.10
2011,07,27,23,28,6.40
2011,07,27,23,29,6.40
2011,07,27,23,30,4.80
2011,07,27,23,31,8.10
2011,07,27,23,32,6.40
2011,07,27,23,33,8.10
2011,07,27,23,34,9.60
2011,07,27,23,35,4.80
2011,07,27,23,36,6.40
2011,07,27,23,37,6.40
2011,07,27,23,38,6.40
2011,07,27,23,39,4.80
2011,07,27,23,40,6.40
2011,07,27,23,41,11.30
2011,07,27,23,42,8.10
2011,07,27,23,43,6.40
2011,07,27,23,44,8.10
2011,07,27,23,45,8.10
2011,07,27,23,46,8.10
2011,07,27,23,47,8.10
2011,07,27,23,48,6.40
2011,07,27,23,49,6.40
2011,07,27,23,50,8.10
2011,07,27,23,51,9.60
2011,07,27,23,52,6.40
2011,07,27,23,53,6.40
2011,07,27,23,54,6.40
2011,07,27,23,55,4.80
2011,07,27,23,56,1.60
2011,07,27,23,57,6.40
2011,07,27,23,58,6.40
2011,07,27,23,59,6.40
